Regional Weather Roundup
Issued by NWS

Home | Current Version | Previous Version | Text Only | Print | Product List | Glossary Off
Versions: 1 2 3 4 5 6 7 8 9 10 11 12 13 14 15 16 17 18 19 20 21 22 23 24 25 26 27 28 29 30 31 32 33 34 35 36 37 38 39 40 41 42 43 44 45 46 47 48 49 50

000
ASUS43 KFSD 211602
RWRSD

WEATHER ROUNDUP FOR SOUTH DAKOTA
NATIONAL WEATHER SERVICE SIOUX FALLS SD
1100 AM CDT THU AUG 21 2014

NOTE: "FAIR" INDICATES FEW OR NO CLOUDS BELOW 12,000 FEET WITH NO
SIGNIFICANT WEATHER AND/OR OBSTRUCTIONS TO VISIBILITY.


SDZ001>005-009-010-012>017-211700-
NORTHWEST AND NORTH CENTRAL SOUTH DAKOTA

CITY           SKY/WX    TMP DP  RH WIND       PRES   REMARKS
BUFFALO          N/A     73  59  61 N7        29.90R
FAITH            N/A     72  60  66 NW12      29.92R
MOBRIDGE       MOSUNNY   73  66  78 N14       29.82S
$$

SDZ012>016-024>037-041>051-057-063-072>074-211700-
SOUTHWEST AND SOUTH CENTRAL SOUTH DAKOTA

CITY           SKY/WX    TMP DP  RH WIND       PRES   REMARKS
RAPID CTY ARPT MOSUNNY   75  57  53 NE9       29.98R
PIERRE         MOSUNNY   75  65  70 NW8       29.85R
CUSTER         PTSUNNY   66  53  63 S5        30.10R
ELLSWORTH AFB  MOSUNNY   73  57  57 N9        29.98R
PHILIP         MOSUNNY   78  59  51 N8        29.91S
PINE RIDGE     MOSUNNY   76  57  51 N10       29.98R
WINNER         FAIR      77  65  66 N9        29.88S
$$

SDZ004>011-016>023-039-040-211700-
NORTHEAST SOUTH DAKOTA

CITY           SKY/WX    TMP DP  RH WIND       PRES   REMARKS
ABERDEEN       PTSUNNY   72  67  84 NW9       29.78R
WATERTOWN      SUNNY     77  70  79 SW12      29.77S
SISSETON         N/A     78  71  79 NW9       29.75R
$$

SDZ017-020-022-023-036>040-048>070-211700-
SOUTHEAST SOUTH DAKOTA

CITY           SKY/WX    TMP DP  RH WIND       PRES   REMARKS
SIOUX FALLS    MOSUNNY   82  72  71 W7        29.77R
HURON          SUNNY     80  68  66 NW10      29.78R
CHAMBERLAIN    MOSUNNY   72  65  80 W8        29.85S
MITCHELL       MOSUNNY   78  72  81 W9        29.80S
YANKTON        SUNNY     81  72  74 W9        29.77R
$$

ABBREVIATIONS USED IN REMARKS
   TC - TEMPERATURE IN CELSIUS
  WCI - WIND CHILL INDEX
   HX - HEAT INDEX
  VSB - VISIBILITY




USA.gov is the U.S. government's official web portal to all federal, state and local government web resources and services.